This demonstration page uses our WeatherBlox Daily Observations layout. Learn more.

Left ArrowRight Arrow

41.55636, -103.73856

Hourly Observations for October 15, 2018

Temp ( °F °C ) Dew Point ( °F °C ) Humidity (%) Winds ( mph kmh ) Pressure ( in mb ) Visibility ( mi km ) Precip ( " mm )
12:58 am 00:58 Clear 7 -14.1 4 -15.7 88 88 W 10 17 30.56 1035 10 16 N/A
1:58 am 01:58 Clear 8 -13.3 4 -15.4 84 84 WNW 14 22 30.56 1035 10 16 N/A
2:58 am 02:58 Clear 10 -12.1 6 -14.6 82 82 WNW 15 24 30.55 1034 10 16 N/A
3:58 am 03:58 Clear 10 -12.1 5 -15.1 79 79 W 10 17 30.53 1034 10 16 N/A
4:58 am 04:58 Clear 11 -11.9 6 -14.7 80 80 WNW 12 19 30.53 1034 10 16 N/A
5:58 am 05:58 Clear 10 -12 5 -14.9 79 79 WNW 14 22 30.55 1035 10 16 N/A
6:58 am 06:58 Clear 9 -12.8 4 -15.3 82 82 WNW 13 20 30.58 1036 10 16 N/A
7:58 am 07:58 Sunny 10 -12.1 5 -14.8 81 81 WNW 13 20 30.58 1036 10 16 N/A
8:58 am 08:58 Sunny 19 -7.3 11 -11.6 72 72 WNW 15 24 30.55 1034 10 16 N/A
9:58 am 09:58 Sunny 25 -3.8 16 -8.7 69 69 WNW 12 19 30.55 1035 10 16 N/A
10:58 am 10:58 Sunny 24 -4.2 17 -8.5 72 72 W 8 13 30.58 1036 10 16 0.01 0.25
11:58 am 11:58 Sunny 28 -2.4 20 -6.6 73 73 W 9 15 30.55 1035 10 16 N/A
12:58 pm 12:58 Sunny 32 0.1 23 -4.8 70 70 W 10 17 30.54 1034 10 16 0.04 1.02
1:58 pm 13:58 Sunny 36 2.4 24 -4.6 60 60 WNW 13 20 30.50 1033 10 16 N/A
2:58 pm 14:58 Sunny 38 3.3 24 -4.6 57 57 WNW 13 20 30.48 1032 10 16 N/A
3:58 pm 15:58 Sunny 38 3.6 25 -3.8 59 59 WNW 13 20 30.46 1032 10 16 N/A
4:58 pm 16:58 Sunny 38 3.3 27 -2.9 64 64 WNW 8 13 30.44 1031 10 16 N/A
5:58 pm 17:58 Sunny 36 2.1 25 -3.8 65 65 WNW 10 17 30.47 1032 10 16 N/A
6:58 pm 18:58 Clear 32 0.2 24 -4.3 72 72 W 12 19 30.49 1033 10 16 N/A
7:58 pm 19:58 Clear 31 -0.7 23 -5.1 72 72 WNW 13 20 30.49 1033 10 16 N/A
8:58 pm 20:58 Clear 30 -1 22 -5.6 71 71 WNW 14 22 30.45 1031 10 16 N/A
9:58 pm 21:58 Clear 31 -0.5 21 -6 67 67 WNW 14 22 30.43 1031 10 16 N/A
10:58 pm 22:58 Clear 29 -1.6 21 -6.3 71 71 WNW 12 19 30.46 1032 10 16 N/A
11:58 pm 23:58 Clear 28 -2.2 20 -6.6 72 72 WNW 12 19 30.45 1031 10 16 N/A

Powered by AerisWeather